Location: Unspecified
(41.9031°N, 12.4386°E)
Time: 17:22:07
(UTC+02:00)

ISS - Pass Details

Date: 26 May 2020
Orbit: 417 x 420 km, 51.6° (Epoch: 26 May)

Event Time Altitude Azimuth Distance (km) Brightness Sun altitude
Rises 21:32:19 0° 302° (WNW) 2,365 2.2 -9.6°
Reaches altitude 10° 21:35:01 10° 325° (NW) 1,501 0.5 -10.0°
Maximum altitude 21:37:13 16° 6° (N) 1,182 -1.0 -10.3°
Drops below altitude 10° 21:39:25 10° 47° (NE) 1,501 -1.0 -10.6°
Sets 21:42:07 0° 70° (ENE) 2,365 -0.2 -11.0°
